Time,TemperatureF,DewpointF,PressureIn,WindDirection,WindDirectionDegrees,WindSpeedMPH,WindSpeedGustMPH,Humidity,HourlyPrecipIn,Conditions,Clouds,dailyrainin,SoftwareType,DateUTC
2013-02-23 00:04:00,26.3,19.0,29.86,SW,230,4.0,0.0,85,0.00,,,-99.99,,2013-02-23 06:04:00,
2013-02-23 00:34:00,24.7,19.0,29.86,SW,230,4.0,0.0,85,0.00,,,-99.99,,2013-02-23 06:34:00,
2013-02-23 01:04:00,25.4,19.0,29.85,WSW,240,4.0,0.0,92,0.00,,,-99.99,,2013-02-23 07:04:00,
2013-02-23 01:34:00,25.2,19.0,29.85,WSW,250,4.0,0.0,92,0.00,,,-99.99,,2013-02-23 07:34:00,
2013-02-23 02:04:00,25.2,19.0,29.85,SW,230,5.0,0.0,92,0.00,,,-99.99,,2013-02-23 08:04:00,
2013-02-23 02:34:00,24.1,19.0,29.85,SW,230,5.0,0.0,92,0.00,,,-99.99,,2013-02-23 08:34:00,
2013-02-23 03:04:00,24.7,19.0,29.84,SW,230,6.0,0.0,92,0.00,,,-99.99,,2013-02-23 09:04:00,
2013-02-23 03:34:00,24.7,19.0,29.84,SW,230,6.0,0.0,92,0.00,,,-99.99,,2013-02-23 09:34:00,
2013-02-23 04:04:00,24.8,19.0,29.84,SW,220,3.0,0.0,92,0.00,,,-99.99,,2013-02-23 10:04:00,
2013-02-23 04:34:00,22.5,19.0,29.84,SW,220,3.0,0.0,92,0.00,,,-99.99,,2013-02-23 10:34:00,
2013-02-23 05:04:00,23.0,17.0,29.85,WSW,240,6.0,0.0,85,0.00,,,-99.99,,2013-02-23 11:04:00,
2013-02-23 05:34:00,22.8,17.0,29.85,WSW,240,6.0,0.0,85,0.00,,,-99.99,,2013-02-23 11:34:00,
2013-02-23 06:04:00,23.1,17.0,29.85,WSW,240,4.0,0.0,92,0.00,,,-99.99,,2013-02-23 12:04:00,
2013-02-23 06:34:00,23.1,17.0,29.85,WSW,240,4.0,0.0,92,0.00,,,-99.99,,2013-02-23 12:34:00,
2013-02-23 07:04:00,23.1,17.0,29.85,SW,230,3.0,0.0,92,0.00,,,-99.99,,2013-02-23 13:04:00,
2013-02-23 07:34:00,24.4,17.0,29.85,SW,230,3.0,0.0,92,0.00,,,-99.99,,2013-02-23 13:34:00,
2013-02-23 08:04:00,23.9,17.0,29.85,West,260,5.0,0.0,85,0.00,,,-99.99,,2013-02-23 14:04:00,
2013-02-23 08:34:00,25.2,19.0,29.85,West,270,3.0,0.0,92,0.00,,,-99.99,,2013-02-23 14:34:00,
2013-02-23 09:04:00,24.4,19.0,29.85,West,270,4.0,0.0,85,0.00,,,-99.99,,2013-02-23 15:04:00,
2013-02-23 09:34:00,27.8,21.0,29.85,WSW,250,4.0,0.0,92,0.00,,,-99.99,,2013-02-23 15:34:00,
2013-02-23 10:04:00,27.4,21.0,29.86,West,270,3.0,0.0,85,0.00,,,-99.99,,2013-02-23 16:04:00,
2013-02-23 10:34:00,31.0,21.0,29.86,West,260,4.0,0.0,79,0.00,,,-99.99,,2013-02-23 16:34:00,
2013-02-23 11:04:00,30.9,19.0,29.86,WSW,240,6.0,0.0,79,0.00,,,-99.99,,2013-02-23 17:04:00,
2013-02-23 11:34:00,32.7,19.0,29.86,WSW,240,6.0,0.0,79,0.00,,,-99.99,,2013-02-23 17:34:00,
2013-02-23 12:04:00,33.7,21.0,29.86,WSW,240,4.0,0.0,79,0.00,,,-99.99,,2013-02-23 18:04:00,
2013-02-23 12:34:00,33.5,21.0,29.86,SW,230,4.0,0.0,74,0.00,,,-99.99,,2013-02-23 18:34:00,
2013-02-23 13:04:00,32.5,21.0,29.85,SSW,210,8.0,0.0,74,0.00,,,-99.99,,2013-02-23 19:04:00,
2013-02-23 13:34:00,35.3,21.0,29.85,SSW,210,8.0,0.0,74,0.00,,,-99.99,,2013-02-23 19:34:00,
2013-02-23 14:04:00,33.6,19.0,29.85,SW,220,8.0,0.0,68,0.00,,,-99.99,,2013-02-23 20:04:00,
2013-02-23 14:34:00,34.9,19.0,29.85,SW,220,8.0,0.0,68,0.00,,,-99.99,,2013-02-23 20:34:00,
2013-02-23 15:04:00,33.1,21.0,29.85,SSW,200,6.0,0.0,74,0.00,,,-99.99,,2013-02-23 21:04:00,
2013-02-23 15:34:00,32.5,21.0,29.85,SSW,200,6.0,0.0,74,0.00,,,-99.99,,2013-02-23 21:34:00,
2013-02-23 16:04:00,31.7,21.0,29.86,SSW,210,8.0,0.0,74,0.00,,,-99.99,,2013-02-23 22:04:00,
2013-02-23 16:34:00,30.5,21.0,29.86,SSW,210,8.0,0.0,74,0.00,,,-99.99,,2013-02-23 22:34:00,
2013-02-23 17:04:00,30.0,21.0,29.87,SW,230,8.0,0.0,79,0.00,,,-99.99,,2013-02-23 23:04:00,
2013-02-23 17:34:00,28.6,19.0,29.87,SW,230,6.0,0.0,73,0.00,,,-99.99,,2013-02-23 23:34:00,
2013-02-23 18:04:00,27.0,19.0,29.88,SW,230,5.0,0.0,79,0.00,,,-99.99,,2013-02-24 00:04:00,
2013-02-23 18:34:00,27.7,19.0,29.88,SW,230,5.0,0.0,79,0.00,,,-99.99,,2013-02-24 00:34:00,
2013-02-23 19:04:00,26.6,19.0,29.90,SW,220,6.0,0.0,79,0.00,,,-99.99,,2013-02-24 01:04:00,
2013-02-23 19:34:00,26.7,19.0,29.90,SW,220,6.0,0.0,79,0.00,,,-99.99,,2013-02-24 01:34:00,
2013-02-23 20:04:00,27.2,19.0,29.91,WSW,240,6.0,0.0,79,0.00,,,-99.99,,2013-02-24 02:04:00,
2013-02-23 20:34:00,26.3,19.0,29.91,WSW,240,6.0,0.0,79,0.00,,,-99.99,,2013-02-24 02:34:00,
2013-02-23 21:04:00,26.9,19.0,29.92,West,260,5.0,0.0,79,0.00,,,-99.99,,2013-02-24 03:04:00,
2013-02-23 21:34:00,27.0,19.0,29.92,West,260,5.0,0.0,79,0.00,,,-99.99,,2013-02-24 03:34:00,
2013-02-23 22:04:00,26.5,17.0,29.93,SW,230,3.0,0.0,79,0.00,,,-99.99,,2013-02-24 04:04:00,
2013-02-23 22:34:00,26.7,17.0,29.93,SW,230,3.0,0.0,79,0.00,,,-99.99,,2013-02-24 04:34:00,
2013-02-23 23:04:00,26.6,17.0,29.95,SW,220,3.0,0.0,85,0.00,,,-99.99,,2013-02-24 05:04:00,
2013-02-23 23:34:00,23.6,17.0,29.95,SW,220,3.0,0.0,85,0.00,,,-99.99,,2013-02-24 05:34:00,